Location: Saignon
(43.8618°N, 5.4278°E)
Time: 01:16:29
(UTC+00:00)

Daily predictions for brighter satellites

Satellite Brightness Start Highest point End
(mag) Time Altitude Azimuth Time Altitude Azimuth Time Altitude Azimuth
ATLAS CENTAUR R/B 4.3 00:07:30 12° WSW 00:12:48 59° NNW 00:27:49 10° NE
Cosmos 1825 3.0 00:13:02 40° E 00:13:03 40° E 00:16:36 10° NNE
DELTA 2 R/B (1) 4.2 00:16:57 36° SE 00:16:57 36° SE 00:21:06 10° E
Cosmos 540 Rocket 4.3 00:15:11 33° SE 00:16:14 37° ESE 00:20:55 10° NE
Cosmos 1408 2.5 00:19:18 81° N 00:19:18 81° N 00:22:49 10° N
Cosmos 990 Rocket 3.9 00:15:47 10° NNW 00:21:00 80° ENE 00:22:37 45° SSE
SL-16 R/B 3.1 00:19:56 24° WSW 00:22:45 41° WNW 00:28:06 10° NNE
Cosmos 405 Rocket 2.7 00:23:36 64° E 00:23:36 64° E 00:27:11 10° NNE
Cosmos 841 Rocket 4.3 00:23:03 33° SE 00:24:16 37° ESE 00:29:00 10° NE
Cosmos 2058 3.5 00:24:22 41° ESE 00:24:51 43° E 00:28:45 10° NNE
USA 229 DEB 3.5 00:22:35 37° SW 00:25:23 84° NW 00:32:15 10° NE
USA 229 3.5 00:22:42 37° SW 00:25:29 84° NW 00:32:21 10° NE
Meteor 2-13 Rocket 4.4 00:23:59 43° S 00:26:11 85° E 00:32:23 10° N
Cosmos 1656 Rocket 4.2 00:20:59 10° NNW 00:26:36 55° ENE 00:30:16 21° SE
Cosmos 2221 3.6 00:22:59 10° N 00:27:01 38° ENE 00:28:24 29° ESE
X-37B 2.2 00:28:46 30° ENE 00:28:46 30° ENE 00:30:32 10° E
Nadezhda 4 Rocket 4.3 00:30:48 34° SSE 00:33:21 58° E 00:39:21 10° NNE
Cosmos 1898 Rocket 3.4 00:29:03 10° NNW 00:34:19 83° ENE 00:36:11 41° SSE
NOSS 3-1 (C) 4.0 00:31:10 23° WSW 00:34:20 48° NW 00:40:27 10° NNE
Cosmos 1937 Rocket 3.9 00:29:19 10° NNW 00:34:36 62° ENE 00:37:19 28° SE
YAOGAN 11 4.2 00:35:34 50° SSE 00:36:41 76° ENE 00:41:11 10° N
Cosmos 2369 Rocket 2.1 00:31:02 10° NNW 00:36:47 82° WSW 00:38:58 40° SSE
Cosmos 1356 4.0 00:37:29 48° WNW 00:37:29 48° WNW 00:40:32 10° N
USA 307 4.0 00:38:07 30° ESE 00:38:07 30° ESE 00:41:27 10° ENE
SJ 16-02 2.7 00:36:43 10° NW 00:40:01 25° W 00:40:01 25° W
NOSS 3-1 (A) 3.5 00:42:41 33° WSW 00:45:08 65° NW 00:51:24 10° NNE
ATLAS 5 CENTAUR R/B 2.6 00:48:04 27° ESE 00:48:15 27° ESE 00:51:49 10° ENE
Cosmos 2263 4.1 00:44:44 10° NNW 00:50:27 87° WSW 00:53:06 33° SSE
CZ-4 R/B 3.7 00:47:36 10° NNE 00:52:17 83° WNW 00:53:33 49° SSW
Helios 1B rocket 3.8 00:49:21 10° NE 00:52:56 28° E 00:54:08 24° SE
USA 308 3.4 00:53:27 41° SE 00:53:31 41° SE 00:57:31 10° ENE
Cosmos 1633 3.7 00:53:22 29° ESE 00:53:56 31° E 00:57:06 10° NNE
Cosmos 1932 4.3 00:49:31 10° NW 00:55:47 86° SW 01:00:03 21° SSE
Meteor 2-2 Rocket 4.3 00:51:21 10° NNW 00:57:24 81° W 01:00:06 35° S
Helios 1A 2.9 01:00:06 55° SSW 01:00:47 67° WSW 01:04:58 10° NNW
Cosmos 1606 3.1 00:59:20 10° N 01:03:07 57° E 01:04:13 39° SE
Cosmos 1570 Rocket 4.3 01:01:44 35° SSE 01:03:40 57° ESE 01:08:47 10° NNE
SL-16 R/B 2.8 00:59:52 18° SSE 01:04:30 66° ENE 01:10:38 10° N
Cosmos 372 Rocket 4.2 01:04:21 10° NNW 01:09:36 71° ENE 01:13:10 21° SSE
USA 305 2.9 01:10:31 52° S 01:11:17 63° SE 01:15:30 10° ENE
USA 290 2.9 01:11:15 42° ESE 01:11:23 43° ESE 01:14:28 10° NE
Cosmos 858 Rocket 4.5 01:06:42 10° NNW 01:11:58 68° WSW 01:14:06 36° S
Cosmos 1092 Rocket 4.1 01:11:05 29° S 01:14:21 73° E 01:20:29 10° NNE
Lacrosse 4 Rocket 2.5 01:11:44 10° NNW 01:15:39 42° NE 01:19:30 10° SE
Cosmos 2098 Rocket 3.5 01:15:08 37° SSW 01:17:16 69° W 01:21:49 10° N
Cosmos 1763 Rocket 4.5 01:15:44 24° WSW 01:17:58 35° WNW 01:22:40 10° N
BREEZE-M R/B 2.6 01:18:12 46° S 01:18:53 56° SE 01:23:22 10° ENE
Cosmos 2208 Rocket 4.3 01:16:33 32° S 01:18:59 63° ESE 01:24:23 10° NNE
Meteor 2-19 Rocket 4.5 01:16:27 30° S 01:19:43 80° E 01:25:52 10° N
USA 267 4.0 01:19:19 28° SW 01:19:57 28° SW 01:25:27 10° WNW
Resurs 1-4 Rocket 2.1 01:16:31 10° NNE 01:21:52 85° ESE 01:24:23 33° S
Cosmos 1437 Rocket 3.3 01:18:28 10° NNW 01:22:04 37° W 01:22:18 37° WSW
Meteor 1-29 4.4 01:22:42 10° NE 01:25:44 29° E 01:26:57 23° SE
SL-4 R/B 4.1 01:22:43 10° NW 01:25:48 24° N 01:28:44 10° ENE
Cosmos 1943 Rocket 3.9 01:26:17 10° WNW 01:29:18 15° W 01:29:31 15° W
NOSS 2-2 (D) 2.9 01:30:21 54° SSW 01:31:01 77° SE 01:34:38 10° NE
Cosmos 1842 Rocket 4.1 01:28:04 10° NNW 01:32:10 42° W 01:33:14 35° SW
NPP 3.6 01:27:38 10° NNE 01:33:04 84° ESE 01:35:57 29° S
ADEOS II 2.7 01:28:22 10° NNE 01:33:30 50° E 01:36:50 21° SSE
USA 306 2.8 01:32:05 38° SW 01:33:41 90° N 01:37:57 10° NE
Cosmos 921 Rocket 3.1 01:32:38 38° SW 01:34:00 58° WNW 01:38:09 10° N
Lacrosse 5 rocket 4.3 01:32:49 10° NNW 01:35:07 16° NNE 01:37:25 10° ENE
Meteor 2-3 Rocket 4.3 01:31:29 20° SSE 01:35:13 52° E 01:40:38 10° NNE
Cosmos 1943 4.0 01:33:25 23° WSW 01:36:30 41° WNW 01:41:52 10° NNE
FALCON 9 DEB 3.3 01:33:34 10° NW 01:36:58 69° NNE 01:40:20 10° ESE
Cosmos 2195 Rocket 4.5 01:34:59 27° SSW 01:38:39 80° W 01:44:58 10° N
CZ-2D R/B 2.1 01:35:23 10° N 01:40:34 69° WNW 01:43:15 29° SSW
Cosmos 2151 2.9 01:44:56 32° S 01:46:49 86° WNW 01:51:03 10° N
IDEFIX/ARIANE 42P 3.8 01:43:01 10° NNE 01:47:51 36° E 01:52:17 12° SSE
Cosmos 1825 4.3 01:47:48 13° W 01:48:44 14° WNW 01:50:50 10° NW
Cosmos 1076 Rocket 4.1 01:49:45 29° SW 01:51:20 42° WNW 01:55:23 10° N
AQUA 3.8 01:47:52 10° N 01:52:39 77° WNW 01:55:17 27° SSW
Cosmos 1437 3.3 01:53:26 10° NNW 01:55:51 32° W 01:55:51 32° W
Cosmos 1242 Rocket 3.9 01:56:46 10° NW 01:59:41 23° W 02:00:05 22° WSW
DELTA 2 R/B (1) 3.6 01:57:41 16° WSW 02:01:59 56° S 02:07:25 10° ESE
X-37B 0.5 02:01:03 11° WNW 02:04:06 89° NNE 02:07:17 10° ESE
Cosmos 2221 4.1 02:01:18 10° NW 02:04:15 18° W 02:05:13 17° WSW
BREEZE-M DEB (TANK) 3.3 02:04:11 10° NW 02:06:24 30° NNE 02:08:39 10° E
CBERS-1 4.4 02:02:07 10° NNE 02:07:14 62° ESE 02:11:27 15° S
IRS-1D 3.6 02:02:19 10° NNE 02:07:28 78° ESE 02:11:14 18° S
NOSS 2-2 (E) 4.3 02:08:02 18° W 02:10:01 32° NW 02:13:29 10° NNE
Cosmos 1812 4.5 02:07:23 10° NNE 02:10:52 31° ENE 02:14:19 10° SE
Cosmos 2292 Rocket 2.5 02:09:52 31° SSW 02:11:07 76° W 02:14:05 10° N
Cosmos 1553 Rocket 4.0 02:05:01 10° N 02:11:21 88° W 02:17:31 10° S
GPS 2-04 Rocket1 3.8 02:15:42 23° SSW 02:16:27 25° S 02:19:39 10° SE
Meteor 2-14 Rocket 4.5 02:11:39 14° S 02:16:55 84° E 02:23:05 10° N
USA 281 3.5 02:10:30 10° SE 02:17:00 70° ENE 02:23:33 10° NNW
S3M 4.2 02:11:13 10° N 02:17:23 71° E 02:23:35 10° SSE
USA 307 3.6 02:14:12 15° WSW 02:17:30 50° NNW 02:21:38 10° NE
Cosmos 1782 2.8 02:13:50 10° N 02:17:52 86° E 02:21:41 11° S
Cosmos 1271 Rocket 3.3 02:16:04 10° N 02:19:45 56° ENE 02:23:27 10° SSE
Cosmos 2369 Rocket 4.1 02:18:06 10° WNW 02:19:50 11° W 02:20:43 11° WSW
MSX 4.5 02:14:40 10° NNE 02:20:19 53° E 02:25:55 10° S
NOSS 2-2 (C) 4.4 02:21:27 15° W 02:23:43 30° NW 02:27:04 10° NNE
CZ-4C R/B 3.3 02:20:56 10° SSE 02:24:22 67° ENE 02:27:49 10° N
ERBS 2.2 02:24:39 24° SSW 02:26:24 68° SE 02:29:37 10° NE
Helios 1B rocket 3.9 02:24:42 10° NNW 02:28:04 25° WNW 02:30:26 15° WSW
Cosmos 1328 Rocket 3.6 02:27:29 10° N 02:31:52 83° E 02:36:15 10° S
ATLAS 5 CENTAUR R/B 2.7 02:29:34 13° WSW 02:32:42 32° NW 02:36:43 10° NNE
FALCON 9 DEB 3.2 02:29:46 10° NW 02:32:51 66° NNE 02:35:54 10° ESE
USA 308 3.9 02:29:31 10° W 02:33:30 41° NNW 02:37:33 10° NE
Cosmos 2298 Rocket 4.3 02:29:40 10° NNW 02:34:47 49° WSW 02:39:54 10° S
SeaSat 1 2.7 02:31:48 10° NNE 02:36:44 65° ESE 02:41:19 12° SSW
FALCON 9 DEB 3.5 02:36:38 10° NW 02:39:44 59° NNE 02:42:47 10° ESE
ADEOS Rocket 3.7 02:32:55 10° S 02:39:58 48° W 02:46:25 10° NNW
FALCON 9 DEB 3.0 02:40:01 10° NW 02:43:07 77° NNE 02:46:12 10° ESE
Cosmos 2150 Rocket 4.4 02:41:25 10° NW 02:46:18 41° WSW 02:51:12 10° S
Cosmos 1833 Rocket 3.7 02:41:35 10° S 02:46:50 42° ESE 02:52:07 10° NE
SL-16 R/B 3.8 02:44:57 13° SW 02:48:35 21° W 02:53:08 10° NW
Meteor 1-28 Rocket 4.0 02:45:49 13° SSW 02:48:45 33° W 02:52:13 10° NNW
Tianhe-1 3.0 02:49:34 12° SSW 02:51:23 18° SSE 02:53:38 10° ESE
USA 305 4.4 02:47:37 10° W 02:51:28 32° NNW 02:55:20 10° NE
IRS-P3 4.2 02:46:45 10° NNE 02:52:07 89° ESE 02:57:26 10° SSW
Lacrosse 4 Rocket 2.8 02:51:11 10° WNW 02:53:59 18° WSW 02:56:19 12° SW
Cosmos 1125 Rocket 3.9 02:49:15 10° NNW 02:54:13 43° WSW 02:59:11 10° S
Cosmos 1151 Rocket 3.5 02:51:25 10° NNW 02:55:26 41° W 02:59:25 10° SSW
Cosmos 2266 Rocket 4.0 02:49:45 10° SSW 02:55:52 76° W 03:01:56 10° N
CZ-4B R/B 3.7 02:54:35 10° NNE 02:59:54 81° ESE 03:05:05 10° SSW
Resurs 1-4 Rocket 4.1 02:58:04 10° NNW 03:00:58 15° WNW 03:03:53 10° W
ARIANE 5 R/B 2.5 02:56:01 10° NNE 03:01:02 86° ESE 03:06:02 10° SSW
CZ-4C R/B 2.1 02:56:32 11° SSW 03:01:10 83° SE 03:06:58 10° NE
Cosmos 1766 Rocket 4.4 02:59:09 11° SW 03:03:01 36° WNW 03:07:10 10° N
Cosmos 1515 Rocket 3.6 02:58:35 10° N 03:03:02 82° W 03:07:28 10° S
Cosmos 1408 Rocket 3.7 03:01:09 10° SSW 03:05:34 66° W 03:10:03 10° N
SL-4 R/B 2.8 03:02:30 10° NW 03:05:57 46° NNE 03:09:16 10° E
COSMOS 2441 4.4 03:04:16 10° N 03:09:04 67° WNW 03:13:49 10° SSW
Cosmos 2082 Rocket 3.8 03:04:52 10° SSE 03:09:45 32° ESE 03:14:40 10° NE
USA 238 DEB 4.3 03:03:02 10° NW 03:10:19 73° NE 03:17:55 10° SE
USA 238 4.3 03:03:09 10° NW 03:10:26 72° NE 03:18:00 10° SE
CENTAUR R/B 3.6 03:02:46 10° NW 03:10:56 73° NE 03:19:51 10° SE
Cosmos 1862 3.7 03:08:38 10° SSW 03:12:33 50° WNW 03:16:31 10° N
ADEOS II 3.5 03:08:45 10° NNW 03:12:50 23° WNW 03:16:55 10° WSW
Lacrosse 5 rocket 1.5 03:11:10 10° NW 03:14:46 67° NE 03:18:30 10° SE
CZ-2D R/B 4.3 03:18:56 10° NW 03:19:39 10° NW 03:20:22 10° WNW
